Location: Newark
(44.6303°N, 123.0961°W)
Time: 21:06:00
(UTC+00:00)

Envisat - Pass Details

Date: 28 January 2020
Orbit: 764 x 766 km, 98.1° (Epoch: 23 February)

Event Time Altitude Azimuth Distance (km) Brightness Sun altitude
Rises 14:20:58 0° 20° (NNE) 3,242 6.3 -13.4°
Reaches altitude 10° 14:23:25 10° 28° (NNE) 2,311 5.7 -13.0°
Maximum altitude 14:28:12 40° 97° (E) 1,124 4.5 -12.2°
Drops below altitude 10° 14:32:56 10° 167° (SSE) 2,294 5.8 -11.4°
Sets 14:35:22 0° 175° (S) 3,215 6.5 -11.0°
